,,PA_Meas_PMT16A,,PR_Meas_QMR101_102,,RH_Meas_QMH101,,SR_Meas_QMS101,,TA_Meas_QMH101,,GenWind,,GenWind,
time,status,PA,status,PR,status,RH,status,SR,status,TA,status,DirAvg,status,SpdAvg,
2013-11-14, 00:00:04,VALID,916.95,VALID,0,VALID,96.4743,VALID,0,VALID,19.7823,INVALID,360,VALID,0,
2013-11-14, 00:01:04,VALID,916.95,VALID,0,VALID,96.4515,VALID,0,VALID,19.7613,VALID,352,VALID,0,
2013-11-14, 00:02:04,VALID,916.949,VALID,0,VALID,96.4438,VALID,0,VALID,19.7418,VALID,352,VALID,0,
2013-11-14, 00:03:04,VALID,916.967,VALID,0,VALID,96.421,VALID,0,VALID,19.7223,VALID,352,VALID,0,
2013-11-14, 00:04:04,VALID,916.961,VALID,0,VALID,96.421,VALID,0,VALID,19.7028,VALID,352,VALID,0,
2013-11-14, 00:05:04,VALID,916.958,VALID,0,VALID,96.4286,VALID,0,VALID,19.7238,VALID,352,VALID,0,
2013-11-14, 00:06:04,VALID,916.939,VALID,0,VALID,96.4286,VALID,0,VALID,19.7028,VALID,352,VALID,0,
2013-11-14, 00:07:04,VALID,916.912,VALID,0.2,VALID,96.4667,VALID,0,VALID,19.7223,VALID,352,VALID,0,
2013-11-14, 00:08:04,VALID,916.907,VALID,0.2,VALID,96.4896,VALID,0,VALID,19.7223,VALID,352,VALID,0,
2013-11-14, 00:09:04,VALID,916.908,VALID,0.4,VALID,96.5048,VALID,0,VALID,19.7418,VALID,352,VALID,0,
2013-11-14, 00:10:04,VALID,916.874,VALID,0.4,VALID,96.5277,VALID,0,VALID,19.7418,VALID,352,VALID,0,
2013-11-14, 00:11:04,VALID,916.872,VALID,0.6,VALID,96.5506,VALID,0,VALID,19.7028,VALID,352,VALID,0,
2013-11-14, 00:12:04,VALID,916.838,VALID,0.4,VALID,96.5429,VALID,0,VALID,19.6833,VALID,352,VALID,0,
2013-11-14, 00:13:04,VALID,916.801,VALID,0.4,VALID,96.5582,VALID,0,VALID,19.6638,VALID,360,VALID,0,
2013-11-14, 00:14:04,VALID,916.804,VALID,0,VALID,96.5963,VALID,0,VALID,19.6248,VALID,3,VALID,0,
2013-11-14, 00:15:04,VALID,916.807,VALID,0.2,VALID,96.5887,VALID,0,VALID,19.6053,VALID,3,VALID,0,
2013-11-14, 00:16:04,VALID,916.806,VALID,0,VALID,96.5811,VALID,0,VALID,19.6263,VALID,3,VALID,0,
2013-11-14, 00:17:04,VALID,916.777,VALID,0,VALID,96.6115,VALID,0,VALID,19.5858,VALID,6,VALID,0,
2013-11-14, 00:18:04,VALID,916.772,VALID,0,VALID,96.6344,VALID,0,VALID,19.5873,VALID,13,VALID,0,
2013-11-14, 00:19:04,VALID,916.773,VALID,0,VALID,96.6497,VALID,0,VALID,19.5663,VALID,13,VALID,0,
2013-11-14, 00:20:04,VALID,916.749,VALID,0,VALID,96.6725,VALID,0,VALID,19.5663,VALID,13,VALID,0,
2013-11-14, 00:21:04,VALID,916.737,VALID,0,VALID,96.6802,VALID,0,VALID,19.5663,VALID,13,VALID,0,
2013-11-14, 00:22:04,VALID,916.722,VALID,0,VALID,96.6954,VALID,0,VALID,19.5678,VALID,13,VALID,0,
2013-11-14, 00:23:04,VALID,916.705,VALID,0,VALID,96.6802,VALID,0,VALID,19.5483,VALID,13,VALID,0,
2013-11-14, 00:24:04,VALID,916.701,VALID,0,VALID,96.7183,VALID,0,VALID,19.5483,VALID,13,VALID,0,
2013-11-14, 00:25:04,VALID,916.685,VALID,0,VALID,96.7183,VALID,0,VALID,19.5273,VALID,13,VALID,0,
2013-11-14, 00:26:04,VALID,916.688,VALID,0,VALID,96.7183,VALID,0,VALID,19.5273,VALID,13,VALID,0,
2013-11-14, 00:27:04,VALID,916.657,VALID,0.2,VALID,96.7335,VALID,0,VALID,19.5468,VALID,13,VALID,0,
2013-11-14, 00:28:04,VALID,916.667,VALID,0,VALID,96.764,VALID,0,VALID,19.5273,VALID,13,VALID,0,
2013-11-14, 00:29:04,VALID,916.666,VALID,0,VALID,96.7564,VALID,0,VALID,19.5273,VALID,13,VALID,0,
2013-11-14, 00:30:04,VALID,916.632,VALID,0,VALID,96.764,VALID,0,VALID,19.5273,VALID,13,VALID,0,
2013-11-14, 00:31:04,VALID,916.617,VALID,0,VALID,96.7488,VALID,0,VALID,19.5468,VALID,13,VALID,0,
2013-11-14, 00:32:04,VALID,916.622,VALID,0,VALID,96.764,VALID,0,VALID,19.5483,VALID,13,VALID,0,
2013-11-14, 00:33:04,VALID,916.611,VALID,0,VALID,96.7716,VALID,0,VALID,19.5483,VALID,13,VALID,0,
2013-11-14, 00:34:04,VALID,916.588,VALID,0,VALID,96.764,VALID,0,VALID,19.5273,VALID,13,VALID,0,
2013-11-14, 00:35:04,VALID,916.586,VALID,0,VALID,96.7945,VALID,0,VALID,19.5273,VALID,13,VALID,0,
2013-11-14, 00:36:04,VALID,916.566,VALID,0,VALID,96.7793,VALID,0,VALID,19.5483,VALID,13,VALID,0,
2013-11-14, 00:37:04,VALID,916.577,VALID,0,VALID,96.7793,VALID,0,VALID,19.5663,VALID,13,VALID,0,
2013-11-14, 00:38:04,VALID,916.518,VALID,0,VALID,96.7564,VALID,0,VALID,19.5663,VALID,13,VALID,0,
2013-11-14, 00:39:04,VALID,916.535,VALID,0,VALID,96.7716,VALID,0,VALID,19.6248,VALID,13,VALID,0,
2013-11-14, 00:40:04,VALID,916.517,VALID,0,VALID,96.7869,VALID,0,VALID,19.6443,VALID,13,VALID,0,
2013-11-14, 00:41:04,VALID,916.475,VALID,0,VALID,96.7945,VALID,0,VALID,19.6248,VALID,13,VALID,0,
2013-11-14, 00:42:04,VALID,916.451,VALID,0,VALID,96.7945,VALID,0,VALID,19.6263,VALID,13,VALID,0,
2013-11-14, 00:43:04,VALID,916.461,VALID,0,VALID,96.8021,VALID,0,VALID,19.6068,VALID,13,VALID,0,
2013-11-14, 00:44:04,VALID,916.434,VALID,0,VALID,96.7793,VALID,0,VALID,19.5858,VALID,13,VALID,0,
2013-11-14, 00:45:04,VALID,916.426,VALID,0,VALID,96.7793,VALID,0,VALID,19.6263,VALID,13,VALID,0,
2013-11-14, 00:46:04,VALID,916.427,VALID,0,VALID,96.7869,VALID,0,VALID,19.6263,VALID,13,VALID,0,
2013-11-14, 00:47:05,VALID,916.42,VALID,0,VALID,96.8021,VALID,0,VALID,19.6263,VALID,13,VALID,0,
2013-11-14, 00:48:05,VALID,916.402,VALID,0,VALID,96.7793,VALID,0,VALID,19.5858,VALID,13,VALID,0,
2013-11-14, 00:49:05,VALID,916.382,VALID,0,VALID,96.7564,VALID,0,VALID,19.5873,VALID,13,VALID,0,
2013-11-14, 00:50:05,VALID,916.413,VALID,0,VALID,96.7564,VALID,0,VALID,19.5468,VALID,13,VALID,0,
2013-11-14, 00:51:05,VALID,916.346,VALID,0,VALID,96.7488,VALID,0,VALID,19.5273,VALID,13,VALID,0,
2013-11-14, 00:52:05,VALID,916.334,VALID,0,VALID,96.7564,VALID,0,VALID,19.5468,VALID,13,VALID,0,
2013-11-14, 00:53:05,VALID,916.338,VALID,0,VALID,96.764,VALID,0,VALID,19.5468,VALID,13,VALID,0,
2013-11-14, 00:54:05,VALID,916.325,VALID,0,VALID,96.764,VALID,0.107441,VALID,19.5468,VALID,13,VALID,0,
2013-11-14, 00:55:05,VALID,916.286,VALID,0,VALID,96.7564,VALID,0,VALID,19.5678,VALID,13,VALID,0,
2013-11-14, 00:56:05,VALID,916.306,VALID,0,VALID,96.764,VALID,0,VALID,19.5678,VALID,13,VALID,0,
2013-11-14, 00:57:05,VALID,916.259,VALID,0,VALID,96.7716,VALID,0,VALID,19.5663,VALID,13,VALID,0,
2013-11-14, 00:58:05,VALID,916.242,VALID,0,VALID,96.7564,VALID,0,VALID,19.5468,VALID,13,VALID,0,
2013-11-14, 00:59:05,VALID,916.224,VALID,0,VALID,96.7564,VALID,0,VALID,19.5483,VALID,13,VALID,0,
2013-11-14, 01:00:05,VALID,916.18,VALID,0,VALID,96.7411,VALID,0,VALID,19.5483,VALID,13,VALID,0,
2013-11-14, 01:01:05,VALID,916.2,VALID,0,VALID,96.7488,VALID,0,VALID,19.5273,VALID,13,VALID,0,
2013-11-14, 01:02:05,VALID,916.174,VALID,0,VALID,96.7564,VALID,0,VALID,19.5483,VALID,13,VALID,0,
2013-11-14, 01:03:05,VALID,916.117,VALID,0,VALID,96.7564,VALID,0,VALID,19.5483,VALID,13,VALID,0,
2013-11-14, 01:04:05,VALID,916.078,VALID,0,VALID,96.764,VALID,0,VALID,19.5288,VALID,13,VALID,0,
2013-11-14, 01:05:05,VALID,916.082,VALID,0,VALID,96.7564,VALID,0,VALID,19.5093,VALID,13,VALID,0,
2013-11-14, 01:06:05,VALID,916.087,VALID,0,VALID,96.7564,VALID,0,VALID,19.4883,VALID,13,VALID,0,
2013-11-14, 01:07:05,VALID,916.061,VALID,0,VALID,96.7793,VALID,0,VALID,19.4898,VALID,13,VALID,0,
2013-11-14, 01:08:05,VALID,916.032,VALID,0,VALID,96.764,VALID,0,VALID,19.4688,VALID,13,VALID,0,
2013-11-14, 01:09:05,VALID,916.021,VALID,0,VALID,96.7716,VALID,0,VALID,19.5093,VALID,13,VALID,0,
2013-11-14, 01:10:05,VALID,915.995,VALID,0,VALID,96.7793,VALID,0,VALID,19.4883,VALID,13,VALID,0,
2013-11-14, 01:11:05,VALID,916.023,VALID,0,VALID,96.7945,VALID,0,VALID,19.5093,VALID,13,VALID,0,
2013-11-14, 01:12:05,VALID,916.019,VALID,0,VALID,96.8098,VALID,0,VALID,19.4883,VALID,13,VALID,0,
2013-11-14, 01:13:05,VALID,915.994,VALID,0,VALID,96.8174,VALID,0.107441,VALID,19.5093,VALID,13,VALID,0,
2013-11-14, 01:14:05,VALID,916.011,VALID,0,VALID,96.8174,VALID,0,VALID,19.4898,VALID,13,VALID,0,
2013-11-14, 01:15:05,VALID,915.994,VALID,0,VALID,96.825,VALID,0,VALID,19.4703,VALID,13,VALID,0,
2013-11-14, 01:16:05,VALID,915.962,VALID,0,VALID,96.8174,VALID,0,VALID,19.4703,VALID,13,VALID,0,
2013-11-14, 01:17:05,VALID,915.97,VALID,0,VALID,96.8403,VALID,0,VALID,19.4298,VALID,13,VALID,0,
2013-11-14, 01:18:05,VALID,915.937,VALID,0,VALID,96.8479,VALID,0,VALID,19.4508,VALID,13,VALID,0,
2013-11-14, 01:19:05,VALID,915.883,VALID,0,VALID,96.8555,VALID,0,VALID,19.4103,VALID,13,VALID,0,
2013-11-14, 01:20:05,VALID,915.863,VALID,0,VALID,96.8707,VALID,0,VALID,19.4313,VALID,13,VALID,0,
2013-11-14, 01:21:05,VALID,915.863,VALID,0,VALID,96.8631,VALID,0.107441,VALID,19.4298,VALID,13,VALID,0,
2013-11-14, 01:22:05,VALID,915.873,VALID,0,VALID,96.8784,VALID,0,VALID,19.4313,VALID,13,VALID,0,
2013-11-14, 01:23:05,VALID,915.824,VALID,0,VALID,96.8784,VALID,0,VALID,19.4313,VALID,13,VALID,0,
2013-11-14, 01:24:05,VALID,915.757,VALID,0,VALID,96.8784,VALID,0,VALID,19.4313,VALID,13,VALID,0,
2013-11-14, 01:25:05,VALID,915.766,VALID,0,VALID,96.8936,VALID,0,VALID,19.4313,VALID,13,VALID,0,
2013-11-14, 01:26:05,VALID,915.757,VALID,0,VALID,96.8936,VALID,0,VALID,19.4313,VALID,13,VALID,0,
2013-11-14, 01:27:05,VALID,915.749,VALID,0,VALID,96.9089,VALID,0,VALID,19.3713,VALID,13,VALID,0,
2013-11-14, 01:28:05,VALID,915.712,VALID,0,VALID,96.9241,VALID,0,VALID,19.4118,VALID,13,VALID,0,
2013-11-14, 01:29:05,VALID,915.727,VALID,0,VALID,96.9089,VALID,0,VALID,19.3908,VALID,13,VALID,0,
2013-11-14, 01:30:05,VALID,915.692,VALID,0,VALID,96.947,VALID,0,VALID,19.4118,VALID,13,VALID,0,
2013-11-14, 01:31:05,VALID,915.659,VALID,0,VALID,96.947,VALID,0.107441,VALID,19.4103,VALID,13,VALID,0,
2013-11-14, 01:32:05,VALID,915.643,VALID,0,VALID,96.947,VALID,0,VALID,19.4313,VALID,13,VALID,0,
2013-11-14, 01:33:05,VALID,915.611,VALID,0,VALID,96.9622,VALID,0,VALID,19.4313,VALID,13,VALID,0,
2013-11-14, 01:34:05,VALID,915.615,VALID,0,VALID,96.9622,VALID,0,VALID,19.3908,VALID,13,VALID,0,
2013-11-14, 01:35:05,VALID,915.599,VALID,0,VALID,96.9775,VALID,0,VALID,19.4298,VALID,146,VALID,0,
2013-11-14, 01:36:05,VALID,915.561,VALID,0,VALID,96.9927,VALID,0,VALID,19.4508,VALID,146,VALID,0,
2013-11-14, 01:37:05,VALID,915.529,VALID,0,VALID,96.9851,VALID,0,VALID,19.4103,VALID,147,VALID,0,
2013-11-14, 01:38:05,VALID,915.516,VALID,0,VALID,97.0003,VALID,0,VALID,19.4508,VALID,146,VALID,0,
2013-11-14, 01:39:05,VALID,915.497,VALID,0,VALID,96.9927,VALID,0,VALID,19.4298,VALID,146,VALID,0,
2013-11-14, 01:40:05,VALID,915.485,VALID,0,VALID,97.0156,VALID,0,VALID,19.4508,VALID,146,VALID,0,
2013-11-14, 01:41:05,VALID,915.447,VALID,0,VALID,97.008,VALID,0,VALID,19.4508,VALID,146,VALID,0,
2013-11-14, 01:42:05,VALID,915.426,VALID,0,VALID,97.0156,VALID,0,VALID,19.4313,VALID,146,VALID,0,
2013-11-14, 01:43:05,VALID,915.39,VALID,0,VALID,97.0385,VALID,0,VALID,19.4313,VALID,146,VALID,0,
2013-11-14, 01:44:05,VALID,915.39,VALID,0,VALID,97.0461,VALID,0,VALID,19.4103,VALID,146,VALID,0,
2013-11-14, 01:45:05,VALID,915.354,VALID,0,VALID,97.0232,VALID,0,VALID,19.4313,VALID,146,VALID,0,
2013-11-14, 01:46:05,VALID,915.32,VALID,0,VALID,97.0308,VALID,0,VALID,19.4118,VALID,146,VALID,0,
2013-11-14, 01:47:05,VALID,915.299,VALID,0,VALID,97.0613,VALID,0,VALID,19.4313,VALID,146,VALID,0,
2013-11-14, 01:48:05,VALID,915.285,VALID,0,VALID,97.0613,VALID,0,VALID,19.4298,VALID,146,VALID,0,
2013-11-14, 01:49:05,VALID,915.282,VALID,0,VALID,97.0613,VALID,0,VALID,19.4313,VALID,146,VALID,0,
2013-11-14, 01:50:05,VALID,915.252,VALID,0,VALID,97.0766,VALID,0,VALID,19.4508,VALID,146,VALID,0,
2013-11-14, 01:51:05,VALID,915.259,VALID,0,VALID,97.0766,VALID,0,VALID,19.4103,VALID,146,VALID,0,
2013-11-14, 01:52:05,VALID,915.234,VALID,0,VALID,97.0613,VALID,0,VALID,19.4313,VALID,146,VALID,0,
2013-11-14, 01:53:05,VALID,915.239,VALID,0,VALID,97.0613,VALID,0,VALID,19.4103,VALID,146,VALID,0,
2013-11-14, 01:54:05,VALID,915.257,VALID,0,VALID,97.0766,VALID,0,VALID,19.4118,VALID,146,VALID,0,
2013-11-14, 01:55:05,VALID,915.25,VALID,0,VALID,97.0766,VALID,0,VALID,19.4103,VALID,146,VALID,0,
2013-11-14, 01:56:05,VALID,915.234,VALID,0,VALID,97.0766,VALID,0,VALID,19.4313,VALID,146,VALID,0,
2013-11-14, 01:57:05,VALID,915.252,VALID,0,VALID,97.0918,VALID,0,VALID,19.4298,VALID,146,VALID,0,
2013-11-14, 01:58:05,VALID,915.216,VALID,0,VALID,97.0918,VALID,0,VALID,19.4703,VALID,146,VALID,0,
2013-11-14, 01:59:05,VALID,915.22,VALID,0,VALID,97.1071,VALID,0,VALID,19.4703,VALID,146,VALID,0,
2013-11-14, 02:00:05,VALID,915.186,VALID,0,VALID,97.0994,VALID,0,VALID,19.4313,VALID,146,VALID,0,
2013-11-14, 02:01:05,VALID,915.2,VALID,0,VALID,97.1147,VALID,0,VALID,19.4118,VALID,146,VALID,0,
2013-11-14, 02:02:05,VALID,915.181,VALID,0,VALID,97.1071,VALID,0,VALID,19.4118,VALID,146,VALID,0,
2013-11-14, 02:03:05,VALID,915.178,VALID,0,VALID,97.1071,VALID,0.107441,VALID,19.3923,VALID,146,VALID,0,
2013-11-14, 02:04:05,VALID,915.195,VALID,0,VALID,97.1071,VALID,0,VALID,19.3923,VALID,146,VALID,0,
2013-11-14, 02:05:05,VALID,915.15,VALID,0,VALID,97.1147,VALID,0,VALID,19.3923,VALID,146,VALID,0,
2013-11-14, 02:06:05,VALID,915.146,VALID,0.2,VALID,97.1223,VALID,0,VALID,19.4118,VALID,146,VALID,0,
2013-11-14, 02:07:05,VALID,915.117,VALID,0,VALID,97.1223,VALID,0,VALID,19.3908,VALID,146,VALID,0,
2013-11-14, 02:08:05,VALID,915.123,VALID,0,VALID,97.1223,VALID,0,VALID,19.3923,VALID,146,VALID,0,
2013-11-14, 02:09:05,VALID,915.086,VALID,0,VALID,97.1452,VALID,0.107441,VALID,19.3713,VALID,146,VALID,0,
2013-11-14, 02:10:05,VALID,915.093,VALID,0,VALID,97.1299,VALID,0,VALID,19.3923,VALID,146,VALID,0,
2013-11-14, 02:11:05,VALID,915.083,VALID,0,VALID,97.1604,VALID,0,VALID,19.3728,VALID,146,VALID,0,
2013-11-14, 02:12:05,VALID,915.059,VALID,0,VALID,97.1452,VALID,0,VALID,19.3518,VALID,146,VALID,0,
2013-11-14, 02:13:05,VALID,915.068,VALID,0,VALID,97.1452,VALID,0,VALID,19.3533,VALID,146,VALID,0,
2013-11-14, 02:14:05,VALID,915.098,VALID,0,VALID,97.1452,VALID,0.107441,VALID,19.3128,VALID,146,VALID,0,
2013-11-14, 02:15:05,VALID,915.07,VALID,0,VALID,97.1604,VALID,0,VALID,19.3323,VALID,146,VALID,0,
2013-11-14, 02:16:05,VALID,915.069,VALID,0,VALID,97.1681,VALID,0,VALID,19.3728,VALID,146,VALID,0,
2013-11-14, 02:17:05,VALID,915.093,VALID,0,VALID,97.1528,VALID,0,VALID,19.3518,VALID,146,VALID,0,
2013-11-14, 02:18:05,VALID,915.078,VALID,0,VALID,97.1604,VALID,0,VALID,19.3518,VALID,146,VALID,0,
2013-11-14, 02:19:05,VALID,915.052,VALID,0,VALID,97.1681,VALID,0,VALID,19.3728,VALID,146,VALID,0,
2013-11-14, 02:20:05,VALID,915.059,VALID,0,VALID,97.1681,VALID,0,VALID,19.4132,VALID,146,VALID,0,
2013-11-14, 02:21:05,VALID,915.092,VALID,0,VALID,97.1757,VALID,0,VALID,19.3923,VALID,146,VALID,0,
2013-11-14, 02:22:05,VALID,915.108,VALID,0,VALID,97.1757,VALID,0,VALID,19.3908,VALID,146,VALID,0,
2013-11-14, 02:23:05,VALID,915.107,VALID,0,VALID,97.1604,VALID,0,VALID,19.3908,VALID,146,VALID,0,
2013-11-14, 02:24:05,VALID,915.119,VALID,0,VALID,97.1833,VALID,0,VALID,19.4118,VALID,146,VALID,0,
2013-11-14, 02:25:05,VALID,915.119,VALID,0,VALID,97.1833,VALID,0,VALID,19.4313,VALID,146,VALID,0,
2013-11-14, 02:26:05,VALID,915.114,VALID,0,VALID,97.1757,VALID,0,VALID,19.4508,VALID,146,VALID,0,
2013-11-14, 02:27:05,VALID,915.137,VALID,0,VALID,97.1757,VALID,0,VALID,19.4703,VALID,146,VALID,0,
2013-11-14, 02:28:05,VALID,915.165,VALID,0,VALID,97.1833,VALID,0,VALID,19.4688,VALID,146,VALID,0,
2013-11-14, 02:29:05,VALID,915.122,VALID,0,VALID,97.1909,VALID,0,VALID,19.4898,VALID,146,VALID,0,
2013-11-14, 02:30:05,VALID,915.129,VALID,0.2,VALID,97.1833,VALID,0,VALID,19.4898,VALID,146,VALID,0,
2013-11-14, 02:31:05,VALID,915.118,VALID,0,VALID,97.1833,VALID,0,VALID,19.5093,VALID,146,VALID,0,
2013-11-14, 02:32:05,VALID,915.126,VALID,0,VALID,97.1833,VALID,0,VALID,19.4898,VALID,146,VALID,0,
2013-11-14, 02:33:05,VALID,915.114,VALID,0,VALID,97.1757,VALID,0,VALID,19.4898,VALID,146,VALID,0,
2013-11-14, 02:34:05,VALID,915.105,VALID,0,VALID,97.1757,VALID,0,VALID,19.5093,VALID,146,VALID,0,
2013-11-14, 02:35:05,VALID,915.111,VALID,0,VALID,97.1909,VALID,0,VALID,19.4688,VALID,146,VALID,0,
2013-11-14, 02:36:05,VALID,915.097,VALID,0,VALID,97.2062,VALID,0,VALID,19.5093,VALID,146,VALID,0,
2013-11-14, 02:37:05,VALID,915.101,VALID,0,VALID,97.2138,VALID,0,VALID,19.5093,VALID,146,VALID,0,
2013-11-14, 02:38:05,VALID,915.071,VALID,0,VALID,97.1986,VALID,0,VALID,19.5093,VALID,146,VALID,0,
2013-11-14, 02:39:05,VALID,915.076,VALID,0,VALID,97.1986,VALID,0,VALID,19.5093,VALID,146,VALID,0,
2013-11-14, 02:40:05,VALID,915.079,VALID,0,VALID,97.1909,VALID,0,VALID,19.5093,VALID,146,VALID,0,
2013-11-14, 02:41:05,VALID,915.073,VALID,0,VALID,97.2062,VALID,0,VALID,19.5288,VALID,146,VALID,0,
2013-11-14, 02:42:05,VALID,915.081,VALID,0,VALID,97.1986,VALID,0,VALID,19.5288,VALID,146,VALID,0,
2013-11-14, 02:43:05,VALID,915.06,VALID,0,VALID,97.2062,VALID,0,VALID,19.5078,VALID,146,VALID,0,
2013-11-14, 02:44:05,VALID,915.044,VALID,0,VALID,97.1909,VALID,0,VALID,19.5288,VALID,146,VALID,0,
2013-11-14, 02:45:05,VALID,915.055,VALID,0,VALID,97.1986,VALID,0,VALID,19.5288,VALID,146,VALID,0,
2013-11-14, 02:46:05,VALID,915.039,VALID,0,VALID,97.2214,VALID,0,VALID,19.5093,VALID,146,VALID,0,
2013-11-14, 02:47:05,VALID,915.045,VALID,0,VALID,97.2062,VALID,0,VALID,19.5078,VALID,146,VALID,0,
2013-11-14, 02:48:05,VALID,915.001,VALID,0,VALID,97.2138,VALID,0,VALID,19.5483,VALID,146,VALID,0,
2013-11-14, 02:49:05,VALID,915.026,VALID,0,VALID,97.2062,VALID,0,VALID,19.5483,VALID,146,VALID,0,
2013-11-14, 02:50:05,VALID,915.012,VALID,0,VALID,97.1909,VALID,0,VALID,19.5468,VALID,146,VALID,0,
2013-11-14, 02:51:05,VALID,914.975,VALID,0,VALID,97.2138,VALID,0,VALID,19.5858,VALID,146,VALID,0,
2013-11-14, 02:52:05,VALID,914.969,VALID,0,VALID,97.2062,VALID,0,VALID,19.6053,VALID,146,VALID,0,
2013-11-14, 02:53:05,VALID,914.972,VALID,0,VALID,97.2062,VALID,0,VALID,19.6053,VALID,146,VALID,0,
2013-11-14, 02:54:05,VALID,914.986,VALID,0,VALID,97.2138,VALID,0,VALID,19.6068,VALID,146,VALID,0,
2013-11-14, 02:55:05,VALID,914.973,VALID,0,VALID,97.1986,VALID,0,VALID,19.6458,VALID,146,VALID,0,
2013-11-14, 02:56:05,VALID,914.982,VALID,0,VALID,97.2138,VALID,0,VALID,19.6068,VALID,146,VALID,0,
2013-11-14, 02:57:05,VALID,914.945,VALID,0,VALID,97.2214,VALID,0,VALID,19.5483,VALID,146,VALID,0,
2013-11-14, 02:58:05,VALID,914.923,VALID,0,VALID,97.2367,VALID,0,VALID,19.5093,VALID,146,VALID,0,
2013-11-14, 02:59:05,VALID,914.929,VALID,0,VALID,97.2367,VALID,0,VALID,19.4688,VALID,146,VALID,0,
2013-11-14, 03:00:05,VALID,914.933,VALID,0,VALID,97.229,VALID,0,VALID,19.4898,VALID,146,VALID,0,
2013-11-14, 03:01:05,VALID,914.913,VALID,0,VALID,97.2367,VALID,0,VALID,19.4703,VALID,146,VALID,0,
2013-11-14, 03:02:05,VALID,914.875,VALID,0,VALID,97.2367,VALID,0,VALID,19.4298,VALID,146,VALID,0,
2013-11-14, 03:03:05,VALID,914.899,VALID,0,VALID,97.2367,VALID,0,VALID,19.4313,VALID,146,VALID,0,
2013-11-14, 03:04:05,VALID,914.872,VALID,0,VALID,97.2367,VALID,0.107441,VALID,19.4118,VALID,146,VALID,0,
2013-11-14, 03:05:05,VALID,914.864,VALID,0,VALID,97.2214,VALID,0,VALID,19.4118,VALID,146,VALID,0,
2013-11-14, 03:06:05,VALID,914.87,VALID,0,VALID,97.2519,VALID,0,VALID,19.3923,VALID,146,VALID,0,
2013-11-14, 03:07:05,VALID,914.881,VALID,0,VALID,97.2519,VALID,0,VALID,19.3713,VALID,146,VALID,0,
2013-11-14, 03:08:05,VALID,914.844,VALID,0,VALID,97.2443,VALID,0,VALID,19.3728,VALID,146,VALID,0,
2013-11-14, 03:09:05,VALID,914.841,VALID,0,VALID,97.2672,VALID,0,VALID,19.3923,VALID,146,VALID,0,
2013-11-14, 03:10:05,VALID,914.802,VALID,0,VALID,97.2519,VALID,0,VALID,19.3713,VALID,146,VALID,0,
2013-11-14, 03:11:05,VALID,914.813,VALID,0,VALID,97.2672,VALID,0,VALID,19.3728,VALID,146,VALID,0,
2013-11-14, 03:12:05,VALID,914.806,VALID,0,VALID,97.2519,VALID,0,VALID,19.3518,VALID,146,VALID,0,
2013-11-14, 03:13:05,VALID,914.795,VALID,0,VALID,97.2519,VALID,0,VALID,19.3713,VALID,146,VALID,0,
2013-11-14, 03:14:05,VALID,914.801,VALID,0,VALID,97.2672,VALID,0,VALID,19.3728,VALID,146,VALID,0,
2013-11-14, 03:15:05,VALID,914.82,VALID,0,VALID,97.2367,VALID,0,VALID,19.3728,VALID,146,VALID,0,
2013-11-14, 03:16:05,VALID,914.807,VALID,0,VALID,97.2519,VALID,0,VALID,19.3728,VALID,146,VALID,0,
2013-11-14, 03:17:05,VALID,914.827,VALID,0,VALID,97.2519,VALID,0,VALID,19.3728,VALID,146,VALID,0,
2013-11-14, 03:18:05,VALID,914.819,VALID,0,VALID,97.2748,VALID,0,VALID,19.3923,VALID,146,VALID,0,
2013-11-14, 03:19:05,VALID,914.794,VALID,0,VALID,97.2367,VALID,0,VALID,19.3923,VALID,146,VALID,0,
2013-11-14, 03:20:05,VALID,914.826,VALID,0,VALID,97.2519,VALID,0,VALID,19.4118,VALID,146,VALID,0,
2013-11-14, 03:21:05,VALID,914.81,VALID,0,VALID,97.2595,VALID,0,VALID,19.3908,VALID,146,VALID,0,
2013-11-14, 03:22:05,VALID,914.822,VALID,0,VALID,97.2672,VALID,0,VALID,19.3923,VALID,146,VALID,0,
2013-11-14, 03:23:05,VALID,914.796,VALID,0,VALID,97.2748,VALID,0,VALID,19.3908,VALID,146,VALID,0,
2013-11-14, 03:24:05,VALID,914.795,VALID,0,VALID,97.2672,VALID,0,VALID,19.4118,VALID,146,VALID,0,
2013-11-14, 03:25:05,VALID,914.799,VALID,0,VALID,97.2443,VALID,0,VALID,19.3908,VALID,146,VALID,0,
2013-11-14, 03:26:05,VALID,914.793,VALID,0,VALID,97.2748,VALID,0,VALID,19.4118,VALID,146,VALID,0,
2013-11-14, 03:27:05,VALID,914.775,VALID,0,VALID,97.2519,VALID,0,VALID,19.4313,VALID,146,VALID,0,
2013-11-14, 03:28:05,VALID,914.803,VALID,0,VALID,97.2519,VALID,0,VALID,19.4508,VALID,146,VALID,0,
2013-11-14, 03:29:04,VALID,914.783,VALID,0,VALID,97.2672,VALID,0,VALID,19.4298,VALID,146,VALID,0,
2013-11-14, 03:30:04,VALID,914.797,VALID,0,VALID,97.2443,VALID,0,VALID,19.4508,VALID,146,VALID,0,
2013-11-14, 03:31:04,VALID,914.801,VALID,0,VALID,97.2595,VALID,0,VALID,19.4493,VALID,146,VALID,0,
2013-11-14, 03:32:04,VALID,914.797,VALID,0,VALID,97.2443,VALID,0,VALID,19.4703,VALID,146,VALID,0,
2013-11-14, 03:33:04,VALID,914.803,VALID,0,VALID,97.2367,VALID,0.107441,VALID,19.4898,VALID,146,VALID,0,
2013-11-14, 03:34:04,VALID,914.784,VALID,0,VALID,97.2595,VALID,0,VALID,19.4898,VALID,146,VALID,0,
2013-11-14, 03:35:04,VALID,914.805,VALID,0,VALID,97.2595,VALID,0,VALID,19.4898,VALID,146,VALID,0,
2013-11-14, 03:36:04,VALID,914.78,VALID,0,VALID,97.2443,VALID,0,VALID,19.5078,VALID,146,VALID,0,
2013-11-14, 03:37:04,VALID,914.822,VALID,0,VALID,97.2519,VALID,0,VALID,19.5288,VALID,146,VALID,0,
2013-11-14, 03:38:04,VALID,914.818,VALID,0,VALID,97.2519,VALID,0,VALID,19.5273,VALID,146,VALID,0,
2013-11-14, 03:39:04,VALID,914.854,VALID,0,VALID,97.2748,VALID,0,VALID,19.5273,VALID,146,VALID,0,
2013-11-14, 03:40:04,VALID,914.84,VALID,0,VALID,97.2519,VALID,0,VALID,19.5273,VALID,146,VALID,0,
2013-11-14, 03:41:04,VALID,914.839,VALID,0,VALID,97.2595,VALID,0,VALID,19.5273,VALID,146,VALID,0,
2013-11-14, 03:42:04,VALID,914.844,VALID,0,VALID,97.2519,VALID,0,VALID,19.5468,VALID,146,VALID,0,
2013-11-14, 03:43:04,VALID,914.823,VALID,0,VALID,97.2595,VALID,0,VALID,19.5468,VALID,146,VALID,0,
2013-11-14, 03:44:04,VALID,914.838,VALID,0,VALID,97.2519,VALID,0,VALID,19.5678,VALID,146,VALID,0,
2013-11-14, 03:45:04,VALID,914.84,VALID,0,VALID,97.2672,VALID,0.107441,VALID,19.5468,VALID,146,VALID,0,
2013-11-14, 03:46:04,VALID,914.832,VALID,0,VALID,97.2748,VALID,0.107441,VALID,19.5468,VALID,146,VALID,0,
2013-11-14, 03:47:04,VALID,914.812,VALID,0,VALID,97.2824,VALID,0,VALID,19.5273,VALID,146,VALID,0,
2013-11-14, 03:48:04,VALID,914.844,VALID,0,VALID,97.2595,VALID,0,VALID,19.5273,VALID,146,VALID,0,
2013-11-14, 03:49:04,VALID,914.82,VALID,0,VALID,97.2519,VALID,0,VALID,19.5468,VALID,146,VALID,0,
2013-11-14, 03:50:04,VALID,914.818,VALID,0,VALID,97.2672,VALID,0,VALID,19.5468,VALID,146,VALID,0,
2013-11-14, 03:51:04,VALID,914.82,VALID,0,VALID,97.2595,VALID,0,VALID,19.5273,VALID,146,VALID,0,
2013-11-14, 03:52:04,VALID,914.799,VALID,0,VALID,97.2672,VALID,0,VALID,19.5273,VALID,146,VALID,0,
2013-11-14, 03:53:04,VALID,914.782,VALID,0,VALID,97.2748,VALID,0,VALID,19.4883,VALID,146,VALID,0,
2013-11-14, 03:54:04,VALID,914.793,VALID,0,VALID,97.2672,VALID,0.107441,VALID,19.5078,VALID,146,VALID,0,
2013-11-14, 03:55:04,VALID,914.787,VALID,0,VALID,97.29,VALID,0,VALID,19.4883,VALID,146,VALID,0,
2013-11-14, 03:56:04,VALID,914.805,VALID,0,VALID,97.2672,VALID,0,VALID,19.5288,VALID,146,VALID,0,
2013-11-14, 03:57:04,VALID,914.834,VALID,0,VALID,97.2824,VALID,0,VALID,19.4883,VALID,146,VALID,0,
2013-11-14, 03:58:04,VALID,914.837,VALID,0,VALID,97.2748,VALID,0,VALID,19.4688,VALID,146,VALID,0,
2013-11-14, 03:59:04,VALID,914.852,VALID,0,VALID,97.2672,VALID,0.107441,VALID,19.4898,VALID,146,VALID,0,